Reflectivity
6 -12 7 10 6 11 -6 8 -19 7 -5 -11 -18 -20 -20 -20 -20 -20 -20 -20 -20 -20 2 -17 -20 -20 -20 -20 -20 -20 -20 -20 -20 -20 -20 -20 -20 -20 -20 -20 -20 -20 -20 -20
-14 -3 -9 6 11 12 22 8 15 19 -1 6 9 -20 -20 -20 -20 -20 -20 -20 -20 -20 -20 -20 1 0 -20 -20 -20 -20 -20 -20 -20 -20 -20 -20 -20 -20 -20 -20 -20 -20 -20 -20
-20 -20 -20 -18 -20 -20 -5 18 19 3 15 18 -3 -6 -20 -19 -18 -20 -20 -20 -20 -20 -20 -20 -20 -12 9 6 0 9 -2 12 3 9 1 -18 -20 -20 -20 -20 -20 -20 -20 -20
-9 -20 -20 -20 -20 -20 -20 -16 9 6 -9 -20 8 -18 -20 -20 -17 -20 -20 -20 -20 -20 -20 -20 -20 -14 -16 -18 9 0 -7 2 6 -3 15 -11 -20 -20 -20 -20 -20 -20 -20 -20
-2 -20 -20 -8 -13 -20 -9 -11 -10 -5 9 -20 -14 -1 -8 2 -20 -20 -20 -20 -20 -20 -20 -20 -20 -2 -10 -6 -20 -14 9 12 7 -6 2 12 -20 -20 -20 -20 -20 -20 -20 -20
-20 -20 -20 -20 -18 -15 -20 -4 -19 -20 -16 -20 -20 -20 -20 -20 -15 -20 -20 -20 -20 -20 -11 -20 -20 -20 -3 -2 7 -9 -8 -18 3 4 -3 -2 4 -16 -20 -20 -20 -20 -20 -20
-20 -20 -20 -20 -20 -20 -19 -20 -20 -20 -20 -20 -20 -6 -20 -20 -20 -20 -9 -1 -20 -20 -20 -20 -20 -20 -19 14 3 -7 -8 -0 -20 -20 -20 -20 -20 -19 -20 -20 -20 -20 -20 -20
-20 -20 -20 -20 -20 -20 -20 -20 -20 -20 -20 -20 -20 -20 -20 -20 -20 -20 -20 -3 -19 -20 -20 -20 -20 -20 -20 -17 -4 -2 16 11 -8 -20 -20 -20 -20 -20 -20 -20 -20 -20 -20 -20
-20 -20 -20 -20 -20 -19 -20 -20 -4 -17 -20 -20 -20 -20 -20 -20 -20 -20 -20 -20 -20 -20 -20 -20 -20 -20 -20 -13 1 -3 -8 10 -6 -2 -19 -20 -20 -20 -20 -20 -20 -20 -20 -20
-20 -20 -20 -20 -20 -20 -20 -20 -20 -20 -16 -20 -7 -20 -20 -20 -20 -20 -20 -20 -20 -20 -20 -20 -20 -20 -20 -20 -7 -0 1 5 -20 -20 -14 11 -20 -20 -20 -20 -20 -19 -19 -18
-20 -20 -20 -20 -20 -20 -20 -20 -20 -20 -20 -9 -20 -20 -20 -20 -20 -20 -20 -5 -20 -20 -20 -20 -20 -20 -19 -19 -19 -4 1 2 5 -10 9 -7 -19 -18 -15 -14 -6 2 -4 -15
-20 -20 -20 -20 -20 -20 -20 -20 -20 -20 -20 -20 -17 -20 -20 -20 -20 -20 -3 -20 -20 -20 -20 -20 -20 -20 -19 2 -1 10 11 10 9 10 -8 -16 -15 10 16 17 14 11 20 23
-8 -20 -20 -20 -20 -20 -20 -20 -20 -20 -20 -20 -20 -20 -20 -20 -20 -20 -20 -20 -20 -20 -20 -20 -20 -20 -20 -14 11 17 15 2 3 6 5 3 -0 -10 16 21 31 35 34 31
-18 -20 -20 -20 -20 -20 -20 -20 -19 -20 -20 -20 -20 -20 -20 -20 -20 -13 -4 -10 -15 -20 -20 -20 -20 -20 -20 -16 -0 12 15 16 0 -12 9 12 12 15 12 9 18 22 26 29
-20 -20 -15 -20 -20 -20 -20 -20 -20 -20 -20 -20 -20 -20 -20 -20 -20 -8 7 2 -7 1 -3 -17 -10 -7 -2 -3 1 4 8 13 12 14 14 19 21 20 19 20 22 22 24 24
-20 -20 -20 -20 -20 -20 -20 -20 -20 -20 -20 -20 -20 -20 -20 -20 -20 -19 -6 6 -16 -15 11 2 4 13 15 12 11 12 15 13 13 17 21 21 23 23 24 23 20 17 19 23
-20 -20 -20 -20 -20 -20 -20 -20 -20 -20 -20 -20 -20 -20 -20 -20 -20 -20 -20 -20 -19 -10 -9 9 13 14 18 14 10 16 16 21 19 17 20 23 24 24 23 21 22 23 20 17
-20 -20 -20 -20 -20 -20 -20 -20 -20 -20 -20 -20 -20 -20 -20 -20 -20 -18 -19 -20 -20 -20 -16 2 8 11 17 18 14 13 14 18 20 22 23 23 24 23 23 23 21 19 18 15
-20 -20 -20 -20 -20 -20 -20 -20 -20 -20 -20 -20 -20 -20 -20 -20 -20 -19 -19 -20 -20 -20 -16 -18 4 6 10 16 16 17 19 18 19 20 20 20 21 21 20 20 19 16 13 12
-20 -20 -20 -20 -20 -20 -20 -20 -20 -20 -20 -20 -20 -20 -20 -20 -20 -20 -20 -18 -10 3 -19 -18 -20 -20 0 13 13 14 15 16 16 17 18 19 18 18 16 13 12 13 13 13
-20 -20 -20 -20 -20 -20 -20 -20 -20 -20 -20 -20 -20 -20 -20 -20 -20 -20 -20 -20 4 -13 -16 -8 -19 -19 -16 -4 8 10 10 12 11 10 11 10 11 13 14 14 13 10 6 -4
-20 -20 -20 -20 -20 -20 -20 -20 -20 -20 -20 -20 -20 -20 -20 -20 -20 -20 -2 2 -10 -4 -14 -19 -11 3 -0 -17 -14 4 9 7 7 6 1 0 6 10 10 7 2 -6 -17 -20
-20 -20 -20 -20 -20 -20 -20 -20 -20 -20 -20 -20 -20 -20 -20 -20 -20 -20 -20 -6 -20 3 -20 -1 6 -0 -13 -19 -17 -19 -17 -10 -11 -6 1 3 1 -2 -8 -14 -20 -20 -20 -20
-20 -20 -20 -20 -20 -20 -20 -20 -20 -20 -20 -20 -20 -20 -20 -20 -20 -20 -20 -1 4 -20 -15 0 -1 -0 -20 -20 -20 -19 -17 -20 -20 -20 -20 -20 -20 -20 -20 -20 -20 -20 -20 -20
-20 -20 -20 -20 -20 -20 -20 -20 -20 -20 -20 -20 -20 -20 -20 -20 -20 -20 -20 -20 -9 -20 -20 -4 -1 -17 -20 -20 -20 -20 -20 -20 -20 -20 -20 -20 -20 -20 -20 -20 -20 -20 -20 -20
-20 -20 -8 -20 -9 -20 -20 -11 -20 -20 -20 -20 -20 -20 -20 -20 -20 -20 -20 -13 -20 -20 -20 -20 -20 -20 -20 -20 -20 -20 -20 -20 -20 -20 -20 -20 -20 -20 -20 -20 -20 -20 -20 -20
-20 -0 -15 -20 -20 -20 -20 -20 -20 -20 -14 -20 -20 -20 -20 -20 -20 -16 -6 -20 -20 -20 -20 -20 -20 -20 -20 -20 -20 -20 -20 -20 -20 -20 -20 -20 -20 -20 -20 -20 -20 -20 -20 -20
Wind_Speed
16 14 18 17 15 18 16 12 6 7 13 14 15 13 13 13 12 14 16 17 17 16 14 16 18 17 18 12 4 6 9 13 14 14 14 14 15 16 15 15 15 16 15 13
5 14 16 18 20 12 15 16 10 4 8 17 12 12 12 12 15 15 15 16 16 16 16 15 15 16 15 14 7 5 8 10 10 12 14 13 15 15 15 15 15 14 14 15
4 7 9 10 16 15 7 12 6 10 10 17 17 19 15 11 14 15 15 15 15 15 15 14 14 14 15 14 7 4 5 6 7 9 10 11 12 13 13 14 13 13 13 14
3 2 5 5 7 7 7 9 11 10 13 17 18 21 3 14 16 17 17 17 15 12 14 15 15 15 14 9 6 3 3 5 6 7 7 8 11 12 12 10 12 11 11 11
3 5 3 2 8 6 4 4 14 14 16 17 19 15 5 20 21 18 18 16 15 13 12 13 13 13 14 9 5 1 3 5 6 7 8 9 10 11 10 12 11 11 11 13
5 3 3 2 10 9 3 3 13 12 14 17 18 9 7 23 22 19 19 17 16 15 13 12 12 12 12 9 5 4 4 5 6 7 10 11 10 10 10 11 11 10 11 12
6 4 3 5 14 7 2 5 15 14 13 14 9 9 18 17 17 17 16 19 17 14 13 13 13 12 10 7 6 4 4 5 6 7 9 10 10 10 10 11 11 11 12 10
5 5 2 9 5 7 4 8 13 14 15 16 15 16 16 17 17 16 15 14 15 13 13 13 11 10 10 7 4 4 5 5 5 6 7 9 13 10 12 13 13 13 13 11
5 3 3 2 7 4 2 7 10 12 14 14 17 17 17 17 17 17 18 15 12 12 14 12 10 10 10 7 3 5 5 6 8 8 9 10 13 13 12 12 12 12 11 11
3 5 8 6 4 8 7 7 11 11 13 14 14 16 16 14 15 15 15 14 12 11 12 11 10 10 8 5 3 5 5 4 7 10 10 10 8 10 10 11 12 12 12 12
2 8 4 4 10 11 10 11 12 12 12 13 14 15 14 15 14 12 13 10 12 11 9 9 8 9 7 5 3 6 7 6 6 7 9 10 8 8 9 9 11 13 11 11
2 6 2 8 12 11 13 14 14 15 15 13 11 14 15 14 12 13 11 11 11 11 9 7 5 6 5 2 4 8 8 7 6 7 8 9 10 10 16 18 22 24 22 14
4 7 7 10 8 12 11 14 15 13 13 14 14 12 14 14 12 16 13 12 12 11 9 8 6 4 3 0 4 7 8 9 8 9 8 9 10 12 14 17 25 24 24 23
5 6 5 7 8 13 10 12 14 11 9 11 12 13 12 12 13 12 12 12 12 9 10 8 6 5 3 1 2 5 7 16 8 8 8 8 9 10 11 12 13 12 19 18
8 4 6 7 8 9 7 9 12 11 12 12 12 12 12 13 12 12 11 10 10 8 8 9 8 8 6 3 3 4 5 6 6 7 7 10 10 11 11 11 11 12 13 16
9 8 5 6 7 9 10 9 9 12 12 12 12 13 13 12 10 10 11 10 9 9 9 8 7 7 6 5 6 6 6 15 9 7 8 8 8 9 10 10 11 11 11 11
6 9 10 9 9 9 9 8 7 9 12 11 13 14 11 11 10 11 11 11 11 8 7 8 8 8 7 6 7 6 6 8 17 10 9 9 9 10 10 11 11 10 9 9
5 5 6 6 7 8 9 9 9 9 9 12 12 11 11 11 11 10 10 9 9 10 11 8 7 8 8 7 6 6 7 7 9 10 9 10 10 10 10 11 11 10 9 12
7 6 7 8 7 6 7 8 9 10 9 9 10 11 10 9 10 10 7 9 10 9 11 10 15 9 6 9 8 5 7 10 10 9 10 16 11 10 10 10 9 9 9 8
9 6 6 7 8 7 7 7 8 8 9 9 9 9 10 10 11 10 8 7 6 6 7 9 9 8 7 9 11 5 7 9 10 10 9 10 10 10 10 14 10 8 7 6
10 9 7 7 8 8 6 6 7 8 9 9 9 10 10 9 10 8 8 7 10 8 9 11 6 5 4 7 8 6 7 9 9 9 10 10 11 10 9 9 8 7 6 5
11 10 9 7 8 8 8 6 6 5 7 8 9 9 10 10 12 10 8 9 8 20 11 7 6 11 9 14 7 7 8 9 8 8 9 9 9 9 8 7 7 6 5 5
9 10 9 6 8 8 7 6 6 4 6 6 8 9 8 6 6 8 8 10 9 15 8 6 12 15 17 8 7 8 9 9 9 9 9 8 7 7 7 6 6 5 4 4
9 10 10 4 7 4 7 8 7 5 3 3 5 5 7 7 4 5 7 13 15 14 12 10 12 15 14 6 7 8 8 8 9 8 8 12 7 7 6 5 5 4 4 5
9 10 9 5 6 6 7 9 5 5 4 4 4 5 6 5 4 4 6 6 15 10 7 15 17 16 7 7 7 7 7 7 6 7 7 7 6 6 5 4 3 3 3 2
9 8 6 5 4 5 5 6 4 5 5 5 3 3 5 5 5 5 4 8 6 9 6 6 5 7 6 7 7 7 7 7 6 6 6 5 5 5 4 4 3 2 2 1
7 13 6 5 5 6 6 5 4 5 6 4 4 4 4 4 6 5 8 5 4 5 5 5 5 7 5 6 6 6 5 5 8 5 4 4 4 3 3 2 2 1 1 1
Wind_Direction
112 101 75 50 28 21 54 360 29 30 87 25 2 354 344 353 10 12 7 4 358 355 353 350 345 343 342 333 174 167 167 184 186 184 182 184 168 170 170 167 168 168 164 164
68 113 88 56 26 42 48 19 10 72 90 13 345 336 351 349 20 4 359 354 349 344 346 347 340 331 329 325 333 152 167 179 176 177 179 172 166 168 163 161 166 166 164 158
187 211 304 23 359 26 88 40 344 40 327 336 340 342 341 36 15 357 347 344 343 337 339 335 330 322 310 308 328 17 133 147 154 167 163 162 158 158 157 163 158 161 158 155
297 150 62 179 36 25 87 56 24 16 354 342 338 323 300 42 8 351 341 339 335 336 333 329 326 321 319 307 311 352 112 120 130 136 134 137 148 157 152 150 151 146 144 141
17 39 122 192 21 347 349 56 19 354 345 345 342 325 97 20 357 338 331 327 324 332 326 319 320 320 316 297 270 254 143 131 127 122 125 134 142 149 142 136 135 143 141 141
331 82 83 281 325 317 207 233 7 351 338 344 348 6 312 339 333 329 325 323 327 332 326 321 321 317 311 302 274 228 190 160 136 135 144 148 144 137 139 139 142 140 140 147
355 73 102 342 318 305 293 306 334 333 337 339 332 300 303 313 318 320 320 321 326 330 324 321 316 315 305 290 258 216 162 147 136 138 140 139 132 137 135 136 135 138 136 142
334 23 4 356 10 64 284 319 328 336 329 326 321 316 314 318 318 322 323 326 327 323 320 315 317 321 308 282 270 191 159 151 139 135 133 138 138 136 140 138 137 139 135 130
123 210 239 123 137 152 31 327 333 328 325 319 315 317 321 321 326 326 324 328 328 327 316 319 321 318 307 290 214 154 145 153 147 133 139 143 143 146 144 147 145 144 144 137
49 35 331 129 351 25 1 348 335 327 323 315 314 318 317 318 321 322 325 322 328 324 320 318 321 312 308 296 167 138 131 133 140 135 133 141 146 148 151 154 150 148 144 138
277 36 17 84 18 352 353 343 332 328 317 320 316 314 316 316 316 314 311 323 321 320 319 317 310 306 301 302 139 129 121 128 132 140 141 139 140 148 153 157 157 147 143 138
22 15 315 303 341 358 351 335 333 325 330 320 319 315 319 315 315 313 322 325 323 322 321 309 282 288 290 244 135 140 136 139 148 143 149 136 133 132 136 139 138 130 129 132
314 4 314 295 319 6 332 327 324 333 320 322 322 322 319 315 315 326 322 325 324 326 323 322 315 306 318 319 148 152 150 143 143 144 146 145 144 142 139 134 129 131 131 131
63 9 331 4 319 319 326 323 322 317 319 320 319 318 318 320 317 321 327 326 322 335 340 339 339 342 347 28 111 131 144 148 141 146 143 143 138 132 129 132 129 128 124 120
354 329 288 293 303 323 323 326 332 333 334 332 328 324 330 328 325 326 326 332 334 345 351 349 357 355 5 39 100 123 129 125 131 136 136 133 130 131 129 127 125 120 115 106
325 314 343 337 331 324 326 331 333 329 333 331 329 331 331 331 327 334 347 346 359 2 355 351 357 353 360 42 73 85 103 126 118 120 121 120 122 118 118 109 107 106 106 107
342 344 340 337 335 333 330 316 316 319 322 329 328 326 333 343 352 359 359 1 359 0 359 5 12 12 14 24 55 65 82 101 106 93 99 102 102 100 101 102 101 99 100 110
321 306 313 311 323 328 327 327 327 328 328 325 328 332 343 353 351 348 353 349 4 12 10 9 34 35 37 38 56 75 84 89 93 97 100 99 99 99 98 99 100 104 103 109
339 336 332 333 333 324 324 328 330 324 330 334 339 339 335 342 344 340 342 6 13 20 11 11 29 28 44 74 64 72 91 99 99 97 98 99 92 92 96 96 96 92 94 96
342 338 335 331 335 334 335 336 328 333 335 340 338 344 343 344 342 347 347 4 3 2 7 21 16 19 22 70 76 69 83 91 97 98 99 95 96 98 100 101 99 96 95 98
339 338 330 339 335 335 343 336 338 344 340 343 346 342 337 346 349 344 4 8 356 20 24 31 41 20 41 63 59 68 81 88 90 97 100 98 98 91 90 93 95 94 97 98
334 335 331 334 337 332 333 329 337 343 345 349 352 354 354 4 3 353 17 17 2 29 24 24 29 66 70 64 58 66 72 77 82 87 90 93 97 99 99 99 98 97 100 98
332 328 325 326 331 319 319 325 337 345 344 345 356 357 356 351 18 8 358 5 14 23 15 14 49 63 70 56 60 64 69 72 74 76 77 78 83 89 93 98 97 101 98 89
326 324 320 326 319 326 343 336 330 327 326 343 355 348 357 359 1 10 348 356 24 22 11 32 42 58 60 51 61 67 70 73 76 76 83 83 75 76 77 79 80 66 62 75
324 319 322 343 339 340 334 325 336 345 352 357 22 1 1 355 337 356 351 5 11 31 11 22 44 53 44 49 57 66 73 79 80 82 84 90 92 92 88 86 89 96 81 67
325 316 326 318 330 335 332 326 359 343 2 1 356 4 355 351 344 7 2 21 16 28 15 3 43 36 40 51 52 57 61 75 77 88 87 84 90 94 99 103 88 77 79 59
319 340 328 346 345 335 323 1 8 351 347 350 355 355 351 344 346 13 19 9 18 24 24 18 23 53 56 55 54 58 60 74 90 79 74 77 78 80 79 89 93 92 62 331